This is the latest recevied weather packets stored in our database for station/object KD9DOE. If no packets are shown the sender has not sent any weather packets the latest 10 day(s).
| Time | Temp. | Humidity | Pressure | Rain* | Wind** | Luminosity | Snow |
|---|---|---|---|---|---|---|---|
| 1777762164 | 15.56° C | 28% | 1014.5 hPa | 0 mm | - | 221 W/m² | - |
| 1777761860 | 15.56° C | 28% | 1014.7 hPa | 0 mm | - | 225 W/m² | - |
| 1777761557 | 15° C | 28% | 1014.9 hPa | 0 mm | - | 284 W/m² | - |
| 1777761255 | 14.44° C | 30% | 1014.6 hPa | 0 mm | - | 188 W/m² | - |
| 1777760954 | 14.44° C | 28% | 1014.8 hPa | 0 mm | - | 62 W/m² | - |
| 1777760651 | 15° C | 27% | 1014.9 hPa | 0 mm | - | 95 W/m² | - |
| 1777760350 | 15.56° C | 28% | 1014.8 hPa | 0 mm | - | 68 W/m² | - |
| 1777760048 | 15° C | 27% | 1014.7 hPa | 0 mm | - | 121 W/m² | - |
| 1777759745 | 15° C | 28% | 1015 hPa | 0 mm | - | 232 W/m² | - |
| 1777759441 | 15° C | 28% | 1015 hPa | 0 mm | - | 98 W/m² | - |
| 1777759137 | 15.56° C | 28% | 1014.9 hPa | 0 mm | - | 81 W/m² | - |
| 1777758835 | 15° C | 29% | 1014.9 hPa | 0 mm | - | 190 W/m² | - |
| 1777758531 | 15° C | 28% | 1015.2 hPa | 0 mm | - | 137 W/m² | - |
| 1777758228 | 14.44° C | 29% | 1015 hPa | 0 mm | - | 138 W/m² | - |
| 1777757925 | 14.44° C | 27% | 1015.2 hPa | 0 mm | - | 134 W/m² | - |
| 1777757622 | 15° C | 27% | 1015.1 hPa | 0 mm | - | 130 W/m² | - |
| 1777757321 | 15° C | 27% | 1015.1 hPa | 0 mm | - | 128 W/m² | - |
| 1777757020 | 15° C | 28% | 1015 hPa | 0 mm | - | 225 W/m² | - |
| 1777756716 | 14.44° C | 28% | 1015.2 hPa | 0 mm | - | 217 W/m² | - |
| 1777756412 | 14.44° C | 28% | 1015.4 hPa | 0 mm | - | 147 W/m² | - |
| 1777756109 | 14.44° C | 28% | 1015.2 hPa | 0 mm | - | 113 W/m² | - |
| 1777755806 | 14.44° C | 27% | 1015.4 hPa | 0 mm | - | 344 W/m² | - |
| 1777755504 | 15° C | 27% | 1015.5 hPa | 0 mm | - | 193 W/m² | - |
| 1777755199 | 15.56° C | 26% | 1015.5 hPa | 0 mm | - | 174 W/m² | - |
| 1777754897 | 15° C | 27% | 1015.5 hPa | 0 mm | - | 169 W/m² | - |
* Rain latest hour (hover to see other rain measurements)
** Current wind speed in m/s (hover to see current wind gust speed)